DECAYED

STARLINK-1208, 45205 (Decayed)

Orbit data source: Space-Track

STARLINK-1208, 45205 was a payload satellite owned by SpaceX/Seattle (US) in LEO that was launched on Mon, 17 Feb 2020 UTC via an FALCON 9 launch vehicle from the Air Force Eastern Test Range (AFETR). Payload-class satellites include a variety of spacecraft equipped with specific instruments for various scientific and technological missions. These include communications satellites like Starlink; space stations such as the ISS; scientific satellites like the Hubble; Earth observation satellites from companies like Planet Labs, Umbra, and HawkEye 360; GPS; miniature CubeSats for education and research; and military/defense satellites.

Not visible in the next 10 days
Identifier
45205, 2020-012AD
Orbit
Decayed
Country
Flag of USUS
Related business
Manufacturer
SpaceX/Seattle
Mission
Decayed Commercial Communications
Bus & Motor
STARLINK, Unknown motor
Mass
260 kg wet, ~248 kg dry
Launch date (UTC)
2020-02-17 (7 years ago)
Launch vehicle
FALCON 9
Launch site
Air Force Eastern Test Range (AFETR)
Object type
Payload
Rocket body
Debris
Shape & HBR
Box + 1 Pan, 10.1 m
Radar Cross Section
13.562 m², Large (>1 m²)

Expand to show TLE details & history
Last TLE update: 11 months ago

TLE from 11 months ago
0 STARLINK-1208
1 45205U 20012AD  25275.44876895  .07516339  12250-4  73500-3 0  9999
2 45205  53.0269 314.2660 0004435 232.6239 127.4403 16.37503308312168
Epoch: 2025-10-02T10:46Z
TLE epoch observation values (Epoch: 2025-10-02T10:46:13.637Z)
Latitude
0.00001°
Longitude
141.29991°
Altitude
175.146 km
Speed
7.801 km/s
True Right ascension
20h 57m 03s
True Declination
0° 00' 00"
Sunlit
Object was in full shadow at epoch
Visualization orbit readout
Latitude
Unknown
Longitude
Unknown
Altitude
Unknown
Speed
Unknown
Apparent Right ascension
Unknown
Apparent Declination
Unknown
Sunlit
N/A
Visualization observer readout
Local Sidereal Time
11:33:09
Azimuth
Unknown
Elevation
Unknown
Doppler factor
Unknown
Orbital elements
Apogee altitude
175.648 km
Perigee altitude
169.838 km
Semi-major axis
6,550.88 km
Eccentricity
0.00044
Inclination
53.0269°
RAAN
314.266°
Arg. of periapsis
232.6239°
True anomaly
127.48064°
Mean anomaly
127.4403°
Eccentric anomaly
127.46047°
Mean motion
4.09349 °/min
Orbital period
87.94 mins
BSTAR
0.000735
Loading maneuver chart data...
Computing Atmospheric mass density...

Documentation

Showing up to 5 results
|